Weather History for KLXV - September, 2012

Change the Weather History Date:

Sunday, September 9, 2012

  Actual Average Record
Temperature  
Mean Temperature 50 °F -  
Max Temperature 69 °F 63 °F 72 °F (1988)
Min Temperature 30 °F 33 °F 21 °F (2001)
Degree Days  
Heating Degree Days 15 17  
Month to date heating degree days 129 145  
Since 1 July heating degree days 699 867  
Cooling Degree Days 0 0  
Month to date cooling degree days 0 0  
Year to date cooling degree days 0 0  
Growing Degree Days 1 (Base 50)    
Moisture  
Dew Point 21 °F    
Average Humidity 47    
Maximum Humidity 82    
Minimum Humidity 11    
Precipitation  
Precipitation 0.00 in 0.04 in 0.31 in (2002)
Month to date precipitation 0.22 0.40  
Year to date precipitation 8.67 9.35  
Snow  
Snow 0.00 in - - ()
Month to date snowfall 0.0  
Snow Depth 0.00 in    
Sea Level Pressure  
Sea Level Pressure 30.06 in    
Wind  
Wind Speed 4 mph (SE)    
Max Wind Speed 15 mph    
Max Gust Speed 21 mph    
Visibility 10 miles    
Events      
T = Trace of Precipitation, MM = Missing Value Source: NWS Daily Summary

Daily Weather History Graph

Daily Weather History Graph

Search for Another Location

Airport or City:

Trip Planner

Search our weather history database for the weather conditions in past years. The results will help you decide how hot, cold, wet, or windy it might be!

Date:

Astronomy

Sep. 09, 2012 Rise Set
Actual Time 6:41 AM MDT 7:22 PM MDT
Civil Twilight 6:14 AM MDT 7:49 PM MDT
Nautical Twilight 5:42 AM MDT 8:21 PM MDT
Astronomical Twilight 5:09 AM MDT 8:54 PM MDT
Moon 12:14 AM MDT (9/9) 3:08 PM MDT (9/9)
Length of Visible Light 13h 34m
Length of Day
12h 40m
Last Quarter, 39% of the Moon is Illuminated
Sep 9
Last Quarter
Sep 15
New
Sep 22
First Quarter
Sep 29
Full
Oct 8
Last Quarter

Hourly Weather History & Observations

Time (MDT) Temp. Windchill Dew Point Humidity Pressure Visibility Wind Dir Wind Speed Gust Speed Precip Events Conditions
1:53 AM 41.0 °F 38.0 °F 28.9 °F 62% 30.14 in 10.0 mi East 4.6 mph - N/A   Clear
2:53 AM 41.0 °F 38.0 °F 28.9 °F 62% 30.11 in 10.0 mi ENE 4.6 mph - N/A   Clear
3:53 AM 37.9 °F - 30.0 °F 73% 30.13 in 10.0 mi Calm Calm - N/A   Clear
4:53 AM 37.0 °F - 30.0 °F 76% 30.14 in 10.0 mi Calm Calm - N/A   Clear
5:53 AM 37.0 °F - 30.0 °F 76% 30.13 in 10.0 mi Calm Calm - N/A   Clear
6:53 AM 34.0 °F 28.8 °F 28.9 °F 82% 30.17 in 10.0 mi NE 5.8 mph - N/A   Clear
7:53 AM 39.0 °F - 30.0 °F 70% 30.19 in 10.0 mi Calm Calm - N/A   Clear
8:53 AM 48.0 °F - 32.0 °F 54% 30.15 in 10.0 mi Calm Calm - N/A   Clear
9:53 AM 53.1 °F - 33.1 °F 47% 30.13 in 10.0 mi Variable 3.5 mph - N/A   Clear
10:53 AM 60.1 °F - 25.0 °F 26% 30.10 in 10.0 mi Calm Calm - N/A   Clear
11:53 AM 62.1 °F - 21.9 °F 21% 30.08 in 10.0 mi North 4.6 mph - N/A   Clear
12:53 PM 64.0 °F - 16.0 °F 16% 30.04 in 10.0 mi Variable 6.9 mph - N/A   Clear
1:53 PM 66.0 °F - 14.0 °F 13% 30.01 in 10.0 mi SSW 10.4 mph - N/A   Clear
2:53 PM 66.0 °F - 14.0 °F 13% 29.98 in 10.0 mi Variable 3.5 mph - N/A   Clear
3:53 PM 68.0 °F - 12.9 °F 12% 29.97 in 10.0 mi Variable 4.6 mph - N/A   Clear
4:53 PM 68.0 °F - 16.0 °F 14% 29.95 in 10.0 mi South 10.4 mph 17.3 mph N/A   Clear
5:53 PM 64.9 °F - 23.0 °F 20% 29.97 in 10.0 mi South 13.8 mph - N/A   Clear
6:53 PM 64.0 °F - 17.1 °F 16% 29.99 in 10.0 mi South 12.7 mph - N/A   Scattered Clouds
7:53 PM 57.9 °F - 12.0 °F 16% 30.02 in 10.0 mi WSW 4.6 mph - N/A   Partly Cloudy
8:53 PM 54.0 °F - 10.0 °F 17% 30.01 in 10.0 mi Calm Calm - N/A   Partly Cloudy
9:53 PM 48.0 °F - 15.1 °F 27% 30.03 in 10.0 mi Calm Calm - N/A   Mostly Cloudy
10:53 PM 50.0 °F - 9.0 °F 19% 29.98 in 10.0 mi Calm Calm - N/A   Clear
11:53 PM 48.0 °F - 12.0 °F 24% 29.99 in 10.0 mi ESE 3.5 mph - N/A   Clear